Regional Weather Roundup
Issued by NWS

Home | Current Version | Previous Version | Graphics & Text | Print | Product List | Glossary On
Versions: 1 2 3 4 5 6 7 8 9 10 11 12 13 14 15 16 17 18 19 20 21 22 23 24 25 26 27 28 29 30 31 32 33 34 35 36 37 38 39 40 41 42 43 44 45 46 47 48 49 50
000
ASUS43 KOAX 070902
RWRNE

WEATHER ROUNDUP FOR NEBRASKA
NATIONAL WEATHER SERVICE OMAHA NE
400 AM CDT THU MAY 07 2015

NOTES: SATELLITE DATA IS BEING USED TO AUGMENT CLOUD COVER ABOVE
       12000 FEET.
       "FAIR" INDICATES FEW OR NO CLOUDS BELOW 12,000 FEET WITH NO
       SIGNIFICANT WEATHER AND/OR OBSTRUCTIONS TO VISIBILITY.

  * THESE STATIONS DO NOT REPORT WEATHER SUCH AS RAIN...SNOW OR FOG.

NEZ001>004-019>022-054>056-071000-
NEBRASKA PANHANDLE

CITY           SKY/WX    TMP DP  RH WIND       PRES   REMARKS
SCOTTSBLUFF    CLOUDY    49 N/A N/A NW16      29.82S
ALLIANCE       CLOUDY    49  45  86 NW10      29.79R
CHADRON        LGT RAIN  48  46  93 W12       29.79R
KIMBALL        CLOUDY    45  43  91 NW17G23   29.82S
SIDNEY         CLOUDY    47  43  86 NW17      29.82R
$$

NEZ057>060-069>072-079>082-071000-
SOUTHWEST NEBRASKA

CITY           SKY/WX    TMP DP  RH WIND       PRES   REMARKS
NORTH PLATTE   MOCLDY    54  51  90 NW10      29.69R
IMPERIAL       MOCLDY    52  46  80 NW18      29.75R
LEXINGTON        N/A     55  54  97 SW7       29.67R FOG
MCCOOK         CLOUDY    57  50  77 W15       29.71R
$$

NEZ005>010-023>029-035>040-094-071000-
NORTH CENTRAL NEBRASKA

CITY           SKY/WX    TMP DP  RH WIND       PRES   REMARKS
VALENTINE      CLOUDY    55  53  93 NW14      29.67R
AINSWORTH      CLOUDY    58  58 100 W7        29.64S FOG
BROKEN BOW     FOG       57  56  96 W3        29.63F VSB 1/2
O`NEILL        CLOUDY    59  58  97 W3        29.63F
ORD            CLOUDY    58  56  93 CALM      29.61F FOG
$$

NEZ041-046>049-061>064-073>077-083>087-071000-
SOUTH CENTRAL NEBRASKA

CITY           SKY/WX    TMP DP  RH WIND       PRES   REMARKS
GRAND ISLAND   CLOUDY    62  59  90 S14       29.64S
AURORA         CLOUDY    63  63  98 S14G22    29.63F
HASTINGS       CLOUDY    63  61  94 S13       29.64F
KEARNEY *      CLOUDY    63  57  82 SW10      29.65R
$$

NEZ011>018-030>034-042>045-071000-
NORTHEAST NEBRASKA

CITY           SKY/WX    TMP DP  RH WIND       PRES   REMARKS
NORFOLK        LGT RAIN  61  58  90 S20       29.63F
COLUMBUS *     CLOUDY    59  54  82 SE10      29.68S
TEKAMAH        RAIN      62  60  93 SE22      29.70F
$$

NEZ050>053-065>068-078-088>093-071000-
SOUTHEAST NEBRASKA

CITY           SKY/WX    TMP DP  RH WIND       PRES   REMARKS
LINCOLN        TSTM      60  59  96 S5        29.76R FOG
OMAHA EPPLEY   TSTM      61  60  97 NE6       29.76S FOG
FALLS CITY     MOCLDY    68  57  68 S15G28    29.74R
PLATTSMOUTH    CLOUDY    60  58  94 NW7       29.77R
$$

NEZ044-045-051>053-067-071000-
OMAHA AREA

CITY           SKY/WX    TMP DP  RH WIND       PRES   REMARKS
OMAHA EPPLEY   TSTM      61  60  97 NE6       29.76S FOG
OFFUTT AFB     CLOUDY    61  59  94 NW7       29.75S THUNDER
PLATTSMOUTH    CLOUDY    60  58  94 NW7       29.77R
$$


USA.gov is the U.S. government's official web portal to all federal, state and local government web resources and services.